EWG37Y LDSP-EDDS

Flight info

Callsign EWG37Y
Flight time 1h 19m
Altitude 38000
Route ZDA DCT RAVNA DCT ULPIN DCT GIRDA DCT INGID DCT SBG DCT TITIG L173 MAH/N0378F240 L173 DODIL T127 TEKSI TEKSI1W
Aircraft A320/M-SDE3FGHIRWY/LB1

Departure

Time 2026-05-07 13:05
Airport Split Saint Jerome Airport (LDSP)

Arrival

Time 2026-05-07 14:25
Airport Stuttgart Airport (EDDS)
Time Latitude Longitude Altitude Speed Heading
2026-05-07 12:43 43.53726 16.29874 80 ft 0 kts 114°
2026-05-07 12:59 43.53726 16.29875 79 ft 1 kts 114°
2026-05-07 12:59 43.53729 16.29884 71 ft 2 kts 61°
2026-05-07 13:00 43.53750 16.29879 74 ft 5 kts 316°
2026-05-07 13:00 43.53759 16.29840 82 ft 6 kts 284°
2026-05-07 13:00 43.53746 16.29770 84 ft 7 kts 233°
2026-05-07 13:00 43.53724 16.29730 81 ft 4 kts 232°
2026-05-07 13:01 43.53708 16.29703 84 ft 6 kts 232°
2026-05-07 13:01 43.53666 16.29623 85 ft 11 kts 241°
2026-05-07 13:01 43.53690 16.29556 85 ft 6 kts 306°
2026-05-07 13:01 43.53693 16.29468 85 ft 18 kts 258°
2026-05-07 13:02 43.53608 16.29282 91 ft 24 kts 232°
2026-05-07 13:02 43.53511 16.29107 88 ft 22 kts 232°
2026-05-07 13:02 43.53422 16.28947 86 ft 20 kts 233°
2026-05-07 13:02 43.53338 16.28796 85 ft 20 kts 232°
2026-05-07 13:03 43.53257 16.28653 83 ft 13 kts 232°
2026-05-07 13:03 43.53207 16.28619 83 ft 9 kts 195°
2026-05-07 13:03 43.53204 16.28565 84 ft 5 kts 320°
2026-05-07 13:03 43.53227 16.28574 82 ft 3 kts 50°
2026-05-07 13:04 43.53236 16.28613 85 ft 6 kts 61°
2026-05-07 13:04 43.53268 16.28672 85 ft 13 kts 53°
2026-05-07 13:04 43.53435 16.28972 86 ft 74 kts 52°
2026-05-07 13:04 43.53877 16.29764 85 ft 133 kts 52°
2026-05-07 13:05 43.54512 16.30926 333 ft 157 kts 57°
2026-05-07 13:05 43.55181 16.32162 1009 ft 164 kts 57°
2026-05-07 13:05 43.55683 16.33592 1530 ft 172 kts 88°
2026-05-07 13:05 43.55506 16.35234 1989 ft 179 kts 121°
2026-05-07 13:06 43.54658 16.36471 2593 ft 181 kts 152°
2026-05-07 13:06 43.53446 16.36909 3290 ft 182 kts 173°
2026-05-07 13:06 43.52220 16.37300 3997 ft 182 kts 155°
2026-05-07 13:06 43.51083 16.38093 4654 ft 184 kts 154°
2026-05-07 13:07 43.49936 16.38917 5233 ft 187 kts 154°
2026-05-07 13:07 43.48765 16.39764 5624 ft 192 kts 154°
2026-05-07 13:07 43.47587 16.40617 5561 ft 193 kts 154°
2026-05-07 13:07 43.46312 16.41306 5438 ft 198 kts 180°
2026-05-07 13:08 43.45044 16.40686 5316 ft 210 kts 224°
2026-05-07 13:08 43.44229 16.38947 5947 ft 217 kts 236°
2026-05-07 13:08 43.43383 16.37185 6639 ft 230 kts 233°
2026-05-07 13:08 43.42368 16.35332 7052 ft 254 kts 231°
2026-05-07 13:09 43.41252 16.33367 7654 ft 267 kts 231°
2026-05-07 13:09 43.40101 16.31351 8487 ft 270 kts 232°
2026-05-07 13:09 43.38943 16.29316 9387 ft 272 kts 232°
2026-05-07 13:09 43.37771 16.27245 10188 ft 275 kts 232°
2026-05-07 13:10 43.36558 16.25089 10516 ft 297 kts 233°
2026-05-07 13:10 43.35476 16.22588 10909 ft 313 kts 253°
2026-05-07 13:10 43.35377 16.19595 11563 ft 322 kts 281°
2026-05-07 13:10 43.36372 16.16821 12353 ft 331 kts 305°
2026-05-07 13:11 43.38021 16.14565 13136 ft 339 kts 318°
2026-05-07 13:11 43.39947 16.12643 13857 ft 345 kts 322°
2026-05-07 13:11 43.41967 16.10841 14498 ft 348 kts 323°
2026-05-07 13:11 43.44003 16.09001 15134 ft 351 kts 322°
2026-05-07 13:12 43.46011 16.07067 15773 ft 354 kts 320°
2026-05-07 13:12 43.47989 16.05033 16439 ft 356 kts 318°
2026-05-07 13:12 43.49949 16.02916 17110 ft 358 kts 317°
2026-05-07 13:12 43.51901 16.00749 17727 ft 362 kts 316°
2026-05-07 13:13 43.53861 15.98551 18374 ft 365 kts 316°
2026-05-07 13:13 43.55838 15.96336 18938 ft 368 kts 316°
2026-05-07 13:13 43.57833 15.94115 19484 ft 371 kts 316°
2026-05-07 13:13 43.59852 15.91878 20010 ft 374 kts 316°
2026-05-07 13:14 43.61894 15.89622 20550 ft 377 kts 316°
2026-05-07 13:14 43.63949 15.87353 21086 ft 380 kts 315°
2026-05-07 13:14 43.66023 15.85059 21624 ft 383 kts 315°
2026-05-07 13:14 43.68113 15.82747 22143 ft 387 kts 315°
2026-05-07 13:15 43.70192 15.80443 22659 ft 390 kts 315°
2026-05-07 13:15 43.72316 15.78086 23178 ft 393 kts 314°
2026-05-07 13:15 43.74456 15.75709 23675 ft 396 kts 314°
2026-05-07 13:15 43.76612 15.73315 24101 ft 399 kts 314°
2026-05-07 13:16 43.78782 15.70900 24541 ft 401 kts 314°
2026-05-07 13:16 43.80964 15.68467 24979 ft 403 kts 314°
2026-05-07 13:16 43.83155 15.66021 25410 ft 405 kts 314°
2026-05-07 13:16 43.85353 15.63567 25851 ft 408 kts 314°
2026-05-07 13:17 43.87569 15.61091 26245 ft 410 kts 314°
2026-05-07 13:17 43.89791 15.58609 26641 ft 412 kts 314°
2026-05-07 13:17 43.92023 15.56113 27026 ft 414 kts 314°
2026-05-07 13:17 43.94273 15.53595 27393 ft 417 kts 314°
2026-05-07 13:18 43.96533 15.51058 27745 ft 419 kts 314°
2026-05-07 13:18 43.98805 15.48505 28095 ft 422 kts 314°
2026-05-07 13:18 44.01089 15.45936 28457 ft 424 kts 314°
2026-05-07 13:18 44.03381 15.43353 28819 ft 426 kts 314°
2026-05-07 13:19 44.05689 15.40748 29168 ft 428 kts 314°
2026-05-07 13:19 44.08007 15.38137 29500 ft 430 kts 314°
2026-05-07 13:19 44.10336 15.35511 29849 ft 432 kts 314°
2026-05-07 13:19 44.12665 15.32856 30148 ft 434 kts 314°
2026-05-07 13:20 44.14993 15.30172 30429 ft 435 kts 313°
2026-05-07 13:20 44.17328 15.27463 30720 ft 437 kts 313°
2026-05-07 13:20 44.19666 15.24743 30964 ft 439 kts 313°
2026-05-07 13:20 44.22014 15.22013 31231 ft 440 kts 313°
2026-05-07 13:21 44.24364 15.19285 31496 ft 440 kts 313°
2026-05-07 13:21 44.26725 15.16546 31755 ft 441 kts 313°
2026-05-07 13:21 44.29084 15.13816 32085 ft 440 kts 313°
2026-05-07 13:21 44.31431 15.11097 32454 ft 437 kts 313°
2026-05-07 13:22 44.33760 15.08391 32863 ft 434 kts 313°
2026-05-07 13:22 44.36065 15.05709 33308 ft 430 kts 313°
2026-05-07 13:22 44.38363 15.03032 33739 ft 427 kts 313°
2026-05-07 13:22 44.40632 15.00384 34137 ft 424 kts 313°
2026-05-07 13:23 44.42890 14.97743 34432 ft 423 kts 313°
2026-05-07 13:23 44.45144 14.95100 34682 ft 422 kts 313°
2026-05-07 13:23 44.47394 14.92459 34914 ft 422 kts 313°
2026-05-07 13:23 44.49644 14.89814 35150 ft 423 kts 313°
2026-05-07 13:24 44.51897 14.87165 35362 ft 423 kts 313°
2026-05-07 13:24 44.54147 14.84521 35568 ft 423 kts 313°
2026-05-07 13:24 44.55643 14.82765 35702 ft 423 kts 313°
2026-05-07 13:24 44.57900 14.80114 35900 ft 423 kts 313°
2026-05-07 13:25 44.60155 14.77461 36099 ft 423 kts 313°
2026-05-07 13:25 44.62409 14.74801 36299 ft 424 kts 313°
2026-05-07 13:25 44.64666 14.72129 36453 ft 425 kts 313°
2026-05-07 13:25 44.66926 14.69451 36616 ft 425 kts 313°
2026-05-07 13:26 44.69198 14.66795 36802 ft 427 kts 316°
2026-05-07 13:26 44.71713 14.64506 36971 ft 436 kts 326°
2026-05-07 13:26 44.74464 14.62649 37146 ft 439 kts 328°
2026-05-07 13:26 44.77227 14.60828 37316 ft 439 kts 328°
2026-05-07 13:27 44.79987 14.59002 37486 ft 439 kts 328°
2026-05-07 13:27 44.82749 14.57167 37679 ft 438 kts 328°
2026-05-07 13:27 44.85508 14.55324 37866 ft 438 kts 328°
2026-05-07 13:27 44.88256 14.53479 38005 ft 438 kts 328°
2026-05-07 13:28 44.93763 14.49792 38030 ft 438 kts 328°
2026-05-07 13:28 44.99276 14.46103 38033 ft 438 kts 328°
2026-05-07 13:29 45.04780 14.42404 38029 ft 438 kts 328°
2026-05-07 13:29 45.10289 14.38697 38033 ft 439 kts 328°
2026-05-07 13:30 45.15806 14.34975 38051 ft 439 kts 328°
2026-05-07 13:30 45.21329 14.31240 38045 ft 440 kts 328°
2026-05-07 13:31 45.26849 14.27501 38043 ft 440 kts 328°
2026-05-07 13:31 45.32377 14.23742 38043 ft 441 kts 328°
2026-05-07 13:32 45.37907 14.19967 38023 ft 441 kts 328°
2026-05-07 13:32 45.43442 14.16196 38018 ft 441 kts 328°
2026-05-07 13:33 45.49204 14.13023 38043 ft 452 kts 342°
2026-05-07 13:33 45.55448 14.11467 38019 ft 456 kts 344°
2026-05-07 13:34 45.64847 14.09206 38007 ft 457 kts 344°
2026-05-07 13:35 45.71076 14.07682 38018 ft 457 kts 344°
2026-05-07 13:35 45.77390 14.06126 38009 ft 458 kts 344°
2026-05-07 13:36 45.83631 14.04605 37997 ft 458 kts 344°
2026-05-07 13:36 45.89921 14.03068 38000 ft 459 kts 344°
2026-05-07 13:37 45.96215 14.01523 37986 ft 458 kts 344°
2026-05-07 13:37 46.02500 13.99971 37981 ft 458 kts 344°
2026-05-07 13:38 46.08787 13.98412 38002 ft 458 kts 344°
2026-05-07 13:38 46.15070 13.96848 37993 ft 459 kts 345°
2026-05-07 13:39 46.21379 13.95288 37978 ft 460 kts 345°
2026-05-07 13:39 46.27682 13.93722 37972 ft 460 kts 344°
2026-05-07 13:40 46.33987 13.92140 37976 ft 460 kts 345°
2026-05-07 13:40 46.40297 13.90561 37955 ft 460 kts 345°
2026-05-07 13:41 46.46609 13.88972 37953 ft 460 kts 344°
2026-05-07 13:41 46.52928 13.87382 37954 ft 461 kts 345°
2026-05-07 13:42 46.59243 13.85800 37979 ft 461 kts 345°
2026-05-07 13:42 46.65567 13.84203 37962 ft 461 kts 345°
2026-05-07 13:43 46.71883 13.82601 37953 ft 461 kts 345°
2026-05-07 13:43 46.78204 13.80995 37966 ft 461 kts 345°
2026-05-07 13:44 46.84529 13.79387 37952 ft 461 kts 345°
2026-05-07 13:44 46.90856 13.77775 37951 ft 462 kts 345°
2026-05-07 13:45 46.97182 13.76154 37968 ft 462 kts 345°
2026-05-07 13:45 47.03513 13.74530 37968 ft 462 kts 345°
2026-05-07 13:46 47.09848 13.72914 37971 ft 462 kts 345°
2026-05-07 13:46 47.16182 13.71283 37995 ft 462 kts 345°
2026-05-07 13:47 47.22514 13.69639 38004 ft 461 kts 344°
2026-05-07 13:47 47.28461 13.66537 38004 ft 449 kts 326°
2026-05-07 13:48 47.33556 13.61387 38001 ft 443 kts 319°
2026-05-07 13:48 47.38547 13.56066 38005 ft 443 kts 319°
2026-05-07 13:49 47.43554 13.50745 38011 ft 444 kts 319°
2026-05-07 13:49 47.48563 13.45385 38032 ft 444 kts 319°
2026-05-07 13:50 47.53566 13.40013 38026 ft 445 kts 319°
2026-05-07 13:50 47.58575 13.34627 38021 ft 445 kts 319°
2026-05-07 13:51 47.63576 13.29235 38030 ft 445 kts 319°
2026-05-07 13:51 47.68578 13.23833 38041 ft 445 kts 319°
2026-05-07 13:52 47.73580 13.18414 38025 ft 445 kts 319°
2026-05-07 13:52 47.78578 13.12974 38047 ft 445 kts 320°
2026-05-07 13:53 47.83580 13.07530 38045 ft 445 kts 320°
2026-05-07 13:53 47.88585 13.02088 38038 ft 445 kts 320°
2026-05-07 13:54 47.93577 12.96623 38036 ft 445 kts 320°
2026-05-07 13:54 47.98209 12.90626 38027 ft 437 kts 305°
2026-05-07 13:55 48.01230 12.82923 38042 ft 427 kts 286°
2026-05-07 13:55 48.02775 12.74403 38030 ft 425 kts 281°
2026-05-07 13:56 48.04215 12.65826 38023 ft 426 kts 281°
2026-05-07 13:56 48.05657 12.57225 38024 ft 427 kts 282°
2026-05-07 13:57 48.07581 12.48788 38026 ft 429 kts 287°
2026-05-07 13:57 48.09574 12.40373 38027 ft 430 kts 287°
2026-05-07 13:58 48.11556 12.31948 37796 ft 428 kts 286°
2026-05-07 13:58 48.12539 12.27744 37143 ft 427 kts 286°
2026-05-07 13:58 48.13514 12.23548 36462 ft 427 kts 286°
2026-05-07 13:58 48.14489 12.19344 35801 ft 427 kts 286°
2026-05-07 13:59 48.15454 12.15149 35187 ft 426 kts 284°
2026-05-07 13:59 48.16122 12.10872 34744 ft 417 kts 276°
2026-05-07 13:59 48.16431 12.06591 34296 ft 412 kts 273°
2026-05-07 13:59 48.16706 12.02341 33814 ft 408 kts 274°
2026-05-07 14:00 48.16980 11.98132 33262 ft 404 kts 274°
2026-05-07 14:00 48.17251 11.93957 32734 ft 401 kts 274°
2026-05-07 14:00 48.17519 11.89794 32314 ft 399 kts 274°
2026-05-07 14:00 48.17782 11.85688 31979 ft 397 kts 274°
2026-05-07 14:01 48.18096 11.81602 31646 ft 395 kts 279°
2026-05-07 14:01 48.18725 11.77584 31341 ft 394 kts 283°
2026-05-07 14:01 48.19396 11.73615 31090 ft 393 kts 283°
2026-05-07 14:01 48.20055 11.69649 30842 ft 391 kts 283°
2026-05-07 14:02 48.20706 11.65709 30597 ft 389 kts 283°
2026-05-07 14:02 48.21351 11.61792 30347 ft 388 kts 283°
2026-05-07 14:02 48.21992 11.57884 30092 ft 384 kts 284°
2026-05-07 14:02 48.22627 11.54007 29725 ft 382 kts 284°
2026-05-07 14:03 48.23257 11.50155 29434 ft 380 kts 284°
2026-05-07 14:03 48.23881 11.46322 29146 ft 377 kts 284°
2026-05-07 14:03 48.24502 11.42506 28863 ft 375 kts 284°
2026-05-07 14:03 48.25117 11.38720 28583 ft 373 kts 284°
2026-05-07 14:04 48.25801 11.34970 28326 ft 372 kts 290°
2026-05-07 14:04 48.26865 11.31446 28112 ft 371 kts 299°
2026-05-07 14:04 48.28323 11.28249 27892 ft 371 kts 309°
2026-05-07 14:04 48.30080 11.25427 27676 ft 370 kts 313°
2026-05-07 14:05 48.31881 11.22657 27460 ft 369 kts 313°
2026-05-07 14:05 48.33665 11.19902 27242 ft 367 kts 313°
2026-05-07 14:05 48.35437 11.17155 27026 ft 366 kts 313°
2026-05-07 14:05 48.37202 11.14409 26762 ft 364 kts 313°
2026-05-07 14:06 48.38953 11.11680 26487 ft 363 kts 313°
2026-05-07 14:06 48.40706 11.08954 26169 ft 360 kts 313°
2026-05-07 14:06 48.42445 11.06253 25886 ft 357 kts 313°
2026-05-07 14:06 48.43582 11.04483 25623 ft 354 kts 313°
2026-05-07 14:07 48.45288 11.01819 25184 ft 352 kts 313°
2026-05-07 14:07 48.46978 10.99176 24749 ft 349 kts 312°
2026-05-07 14:07 48.49199 10.95699 24152 ft 347 kts 312°
2026-05-07 14:07 48.50322 10.93931 23853 ft 345 kts 312°
2026-05-07 14:08 48.52172 10.90994 23301 ft 344 kts 311°
2026-05-07 14:08 48.53268 10.89245 22977 ft 341 kts 311°
2026-05-07 14:08 48.54884 10.86651 22525 ft 338 kts 312°
2026-05-07 14:08 48.56493 10.84063 22082 ft 337 kts 312°
2026-05-07 14:09 48.58094 10.81486 21642 ft 337 kts 312°
2026-05-07 14:09 48.59701 10.78909 21206 ft 336 kts 312°
2026-05-07 14:09 48.61288 10.76389 20770 ft 335 kts 312°
2026-05-07 14:09 48.62913 10.73817 20331 ft 334 kts 312°
2026-05-07 14:10 48.64491 10.71322 19903 ft 332 kts 312°
2026-05-07 14:10 48.66107 10.68767 19464 ft 331 kts 312°
2026-05-07 14:10 48.67672 10.66283 19029 ft 330 kts 312°
2026-05-07 14:10 48.69252 10.63775 18599 ft 329 kts 312°
2026-05-07 14:11 48.70807 10.61256 18137 ft 327 kts 308°
2026-05-07 14:11 48.72016 10.58373 17705 ft 323 kts 293°
2026-05-07 14:11 48.72686 10.55154 17272 ft 320 kts 279°
2026-05-07 14:11 48.72793 10.51814 16863 ft 317 kts 265°
2026-05-07 14:12 48.72529 10.48508 16461 ft 316 kts 263°
2026-05-07 14:12 48.72261 10.45227 16066 ft 314 kts 263°
2026-05-07 14:12 48.71995 10.41957 15665 ft 312 kts 263°
2026-05-07 14:12 48.71728 10.38703 15277 ft 310 kts 263°
2026-05-07 14:13 48.71461 10.35472 14886 ft 309 kts 263°
2026-05-07 14:13 48.71194 10.32248 14497 ft 308 kts 263°
2026-05-07 14:13 48.70929 10.29043 14094 ft 307 kts 263°
2026-05-07 14:13 48.70663 10.25841 13694 ft 306 kts 263°
2026-05-07 14:14 48.70397 10.22660 13284 ft 304 kts 263°
2026-05-07 14:14 48.70131 10.19497 12896 ft 301 kts 263°
2026-05-07 14:14 48.69865 10.16363 12503 ft 300 kts 262°
2026-05-07 14:14 48.69599 10.13263 12259 ft 292 kts 262°
2026-05-07 14:15 48.69343 10.10265 12036 ft 285 kts 263°
2026-05-07 14:15 48.69144 10.07289 11659 ft 284 kts 269°
2026-05-07 14:15 48.69348 10.04323 11295 ft 283 kts 280°
2026-05-07 14:15 48.69711 10.01397 10903 ft 283 kts 279°
2026-05-07 14:16 48.70066 9.98479 10542 ft 281 kts 279°
2026-05-07 14:16 48.70412 9.95582 10183 ft 279 kts 279°
2026-05-07 14:16 48.70755 9.92691 9797 ft 278 kts 279°
2026-05-07 14:16 48.71095 9.89827 9406 ft 276 kts 279°
2026-05-07 14:17 48.71434 9.86976 9013 ft 274 kts 279°
2026-05-07 14:17 48.71770 9.84140 8602 ft 272 kts 279°
2026-05-07 14:17 48.72099 9.81349 8304 ft 267 kts 279°
2026-05-07 14:17 48.72424 9.78597 7975 ft 264 kts 279°
2026-05-07 14:18 48.72744 9.75870 7643 ft 262 kts 279°
2026-05-07 14:18 48.73062 9.73157 7244 ft 261 kts 279°
2026-05-07 14:18 48.73377 9.70456 6861 ft 260 kts 279°
2026-05-07 14:18 48.73690 9.67774 6501 ft 257 kts 279°
2026-05-07 14:19 48.74004 9.65098 5984 ft 260 kts 279°
2026-05-07 14:19 48.74318 9.62421 5667 ft 254 kts 280°
2026-05-07 14:19 48.74621 9.59848 5526 ft 242 kts 280°
2026-05-07 14:19 48.74906 9.57408 5421 ft 229 kts 280°
2026-05-07 14:20 48.75078 9.55083 5282 ft 217 kts 266°
2026-05-07 14:20 48.74758 9.52919 5054 ft 213 kts 255°
2026-05-07 14:20 48.74354 9.50773 4784 ft 211 kts 255°
2026-05-07 14:20 48.73949 9.48609 4489 ft 210 kts 256°
2026-05-07 14:21 48.73558 9.46515 4211 ft 209 kts 256°
2026-05-07 14:21 48.73164 9.44407 3938 ft 201 kts 257°
2026-05-07 14:21 48.72793 9.42423 3657 ft 195 kts 255°
2026-05-07 14:21 48.72428 9.40478 3406 ft 191 kts 257°
2026-05-07 14:22 48.72068 9.38556 3138 ft 181 kts 255°
2026-05-07 14:22 48.71739 9.36804 2907 ft 169 kts 257°
2026-05-07 14:22 48.71419 9.35099 2690 ft 165 kts 256°
2026-05-07 14:22 48.71115 9.33481 2492 ft 157 kts 257°
2026-05-07 14:23 48.70833 9.31981 2278 ft 146 kts 257°
2026-05-07 14:23 48.70565 9.30544 2056 ft 139 kts 257°
2026-05-07 14:23 48.70299 9.29134 1866 ft 138 kts 258°
2026-05-07 14:23 48.70032 9.27751 1726 ft 136 kts 258°
2026-05-07 14:24 48.69773 9.26374 1540 ft 136 kts 257°
2026-05-07 14:24 48.69515 9.25024 1372 ft 136 kts 256°
2026-05-07 14:24 48.69255 9.23631 1253 ft 128 kts 257°
2026-05-07 14:24 48.69059 9.22565 1255 ft 83 kts 253°
2026-05-07 14:25 48.68950 9.22001 1248 ft 24 kts 255°
2026-05-07 14:25 48.68941 9.21781 1247 ft 21 kts 275°
2026-05-07 14:25 48.68968 9.21586 1245 ft 17 kts 285°
2026-05-07 14:25 48.68997 9.21423 1248 ft 16 kts 283°
2026-05-07 14:26 48.68984 9.21252 1240 ft 17 kts 256°
2026-05-07 14:26 48.68952 9.21074 1240 ft 17 kts 253°
2026-05-07 14:26 48.68921 9.20915 1243 ft 15 kts 254°
2026-05-07 14:26 48.68891 9.20758 1237 ft 16 kts 254°
2026-05-07 14:27 48.68858 9.20584 1251 ft 18 kts 254°
2026-05-07 14:27 48.68824 9.20401 1245 ft 18 kts 254°
2026-05-07 14:27 48.68788 9.20212 1249 ft 19 kts 253°
2026-05-07 14:27 48.68758 9.20061 1251 ft 13 kts 254°
2026-05-07 14:28 48.68764 9.19937 1236 ft 13 kts 276°
2026-05-07 14:28 48.68748 9.19796 1241 ft 15 kts 253°
2026-05-07 14:28 48.68719 9.19643 1236 ft 16 kts 254°
2026-05-07 14:28 48.68686 9.19472 1248 ft 18 kts 253°
2026-05-07 14:29 48.68652 9.19291 1240 ft 15 kts 254°
2026-05-07 14:29 48.68656 9.19180 1240 ft 10 kts 315°
2026-05-07 14:29 48.68726 9.19146 1243 ft 12 kts 356°
2026-05-07 14:29 48.68777 9.19225 1248 ft 12 kts 71°
2026-05-07 14:30 48.68801 9.19318 1239 ft 3 kts 36°
2026-05-07 14:30 48.68829 9.19308 1235 ft 7 kts 341°
2026-05-07 14:30 48.68868 9.19290 1238 ft 0 kts 345°